Weather History for Middletown, PA

Change the Weather History Date:

Monday, September 10, 2012

  Actual Average Record
Temperature  
Mean Temperature 63 °F 68 °F  
Max Temperature 73 °F 78 °F 97 °F (1983)
Min Temperature 53 °F 59 °F 42 °F (1956)
Degree Days  
Heating Degree Days 2 1  
Month to date heating degree days 2 5  
Since 1 July heating degree days 2 7  
Cooling Degree Days 0 4  
Month to date cooling degree days 94 54  
Year to date cooling degree days 1196 950  
Growing Degree Days 13 (Base 50)    
Moisture  
Dew Point 48 °F    
Average Humidity 62    
Maximum Humidity 89    
Minimum Humidity 35    
Precipitation  
Precipitation 0.00 in 0.13 in 4.17 in (1907)
Month to date precipitation 0.86 1.20  
Year to date precipitation 30.19 28.14  
Sea Level Pressure  
Sea Level Pressure 30.07 in    
Wind  
Wind Speed 7 mph (NNW)    
Max Wind Speed 21 mph    
Max Gust Speed 25 mph    
Visibility 10 miles    
Events      
T = Trace of Precipitation, MM = Missing Value Source: NWS Daily Summary

Daily Weather History Graph

Daily Weather History Graph

Search for Another Location

Airport:

Trip Planner

Search our weather history database for the weather conditions in past years. The results will help you decide how hot, cold, wet, or windy it might be!

Date:

Astronomy

Sep. 10, 2012 Rise Set
Actual Time 6:43 AM EDT 7:23 PM EDT
Civil Twilight 6:16 AM EDT 7:50 PM EDT
Nautical Twilight 5:43 AM EDT 8:23 PM EDT
Astronomical Twilight 5:10 AM EDT 8:56 PM EDT
Moon 1:02 AM EDT (9/10) 3:51 PM EDT (9/10)
Length of Visible Light 13h 34m
Length of Day
12h 39m
Waning Crescent, 30% of the Moon is Illuminated
Sep 10
Waning Crescent
Sep 15
New
Sep 22
First Quarter
Sep 29
Full
Oct 8
Last Quarter

Hourly Weather History & Observations

Time (EDT) Temp. Dew Point Humidity Pressure Visibility Wind Dir Wind Speed Gust Speed Precip Events Conditions
12:56 AM 60.1 °F 52.0 °F 75% 29.97 in 10.0 mi NW 6.9 mph - N/A   Partly Cloudy
1:56 AM 57.9 °F 52.0 °F 81% 29.98 in 10.0 mi NW 5.8 mph - N/A   Clear
2:56 AM 59.0 °F 52.0 °F 78% 29.98 in 10.0 mi NW 9.2 mph - N/A   Clear
3:56 AM 57.0 °F 52.0 °F 83% 29.98 in 10.0 mi NNW 4.6 mph - N/A   Clear
4:56 AM 55.9 °F 51.1 °F 84% 29.99 in 10.0 mi NNW 4.6 mph - N/A   Clear
5:56 AM 55.9 °F 51.1 °F 84% 30.01 in 10.0 mi NNW 3.5 mph - N/A   Clear
6:56 AM 55.9 °F 50.0 °F 80% 30.04 in 10.0 mi NNW 5.8 mph - N/A   Clear
7:56 AM 57.9 °F 51.1 °F 78% 30.07 in 10.0 mi NW 9.2 mph - N/A   Clear
8:56 AM 61.0 °F 52.0 °F 72% 30.08 in 10.0 mi NW 10.4 mph - N/A   Clear
9:56 AM 64.9 °F 48.9 °F 56% 30.09 in 10.0 mi NNW 9.2 mph - N/A   Clear
10:56 AM 66.9 °F 48.9 °F 52% 30.10 in 10.0 mi NNW 10.4 mph - N/A   Scattered Clouds
11:56 AM 69.1 °F 46.9 °F 45% 30.09 in 10.0 mi NNW 12.7 mph - N/A   Scattered Clouds
12:56 PM 70.0 °F 43.0 °F 38% 30.08 in 10.0 mi NW 11.5 mph 20.7 mph N/A   Scattered Clouds
1:56 PM 71.1 °F 43.0 °F 36% 30.08 in 10.0 mi NNW 17.3 mph 20.7 mph N/A   Scattered Clouds
2:56 PM 71.1 °F 45.0 °F 39% 30.06 in 10.0 mi NNW 16.1 mph 24.2 mph N/A   Scattered Clouds
3:56 PM 71.1 °F 46.0 °F 41% 30.07 in 10.0 mi NW 10.4 mph 18.4 mph N/A   Scattered Clouds
4:56 PM 70.0 °F 44.1 °F 39% 30.07 in 10.0 mi NNW 13.8 mph 18.4 mph N/A   Partly Cloudy
5:56 PM 70.0 °F 43.0 °F 38% 30.09 in 10.0 mi NNW 9.2 mph - N/A   Partly Cloudy
6:56 PM 68.0 °F 44.1 °F 42% 30.09 in 10.0 mi NNW 8.1 mph - N/A   Partly Cloudy
7:56 PM 64.9 °F 45.0 °F 48% 30.10 in 10.0 mi Calm Calm - N/A   Clear
8:56 PM 59.0 °F 51.1 °F 75% 30.13 in 10.0 mi Calm Calm - N/A   Clear
9:56 PM 55.0 °F 50.0 °F 83% 30.15 in 10.0 mi Calm Calm - N/A   Clear
10:56 PM 55.9 °F 48.9 °F 77% 30.16 in 10.0 mi Calm Calm - N/A   Clear
11:56 PM 53.6 °F 50.0 °F 88% 30.17 in 10.0 mi Calm Calm - N/A   Clear